TimeCDT,TemperatureF,Dew PointF,Humidity,Sea Level PressureIn,VisibilityMPH,Wind Direction,Wind SpeedMPH,Gust SpeedMPH,PrecipitationIn,Events,Conditions,WindDirDegrees,DateUTC
12:52 AM,64.9,55.9,73,30.06,10.0,SE,11.5,18.4,N/A,,Clear,140,2013-09-28 05:52:00
1:52 AM,64.0,55.9,75,30.06,10.0,SE,9.2,-,N/A,,Clear,140,2013-09-28 06:52:00
2:52 AM,63.0,55.9,78,30.06,10.0,SSE,10.4,18.4,N/A,,Clear,150,2013-09-28 07:52:00
3:52 AM,62.1,55.9,80,30.05,10.0,SE,10.4,-,N/A,,Clear,140,2013-09-28 08:52:00
4:52 AM,62.1,55.9,80,30.04,10.0,SSE,10.4,-,N/A,,Clear,150,2013-09-28 09:52:00
5:52 AM,61.0,57.0,87,30.05,10.0,SSE,9.2,-,N/A,,Clear,150,2013-09-28 10:52:00
6:52 AM,59.0,55.9,90,30.07,10.0,SSE,5.8,-,N/A,,Clear,160,2013-09-28 11:52:00
7:52 AM,60.1,53.1,78,30.07,10.0,SSE,6.9,-,N/A,,Clear,150,2013-09-28 12:52:00
8:52 AM,64.9,54.0,68,30.06,10.0,SSE,11.5,-,N/A,,Clear,160,2013-09-28 13:52:00
9:52 AM,69.1,55.9,63,30.04,10.0,SE,8.1,-,N/A,,Clear,140,2013-09-28 14:52:00
10:52 AM,70.0,57.9,65,30.02,10.0,SE,11.5,-,N/A,,Clear,130,2013-09-28 15:52:00
11:52 AM,72.0,59.0,64,29.99,10.0,SE,9.2,-,N/A,,Clear,140,2013-09-28 16:52:00
12:52 PM,72.0,60.1,66,29.96,10.0,ESE,13.8,-,N/A,,Clear,120,2013-09-28 17:52:00
1:52 PM,73.9,59.0,59,29.93,10.0,SE,13.8,-,N/A,,Clear,130,2013-09-28 18:52:00
2:52 PM,75.0,61.0,62,29.91,10.0,SE,9.2,-,N/A,,Partly Cloudy,140,2013-09-28 19:52:00
3:52 PM,80.1,55.9,43,29.88,10.0,South,16.1,25.3,N/A,,Scattered Clouds,180,2013-09-28 20:52:00
4:52 PM,79.0,55.0,44,29.86,10.0,South,17.3,25.3,N/A,,Clear,190,2013-09-28 21:52:00
5:52 PM,79.0,54.0,42,29.86,10.0,South,17.3,25.3,N/A,,Clear,180,2013-09-28 22:52:00
6:52 PM,78.1,54.0,43,29.86,10.0,South,13.8,-,N/A,,Scattered Clouds,180,2013-09-28 23:52:00
7:52 PM,77.0,55.0,47,29.87,10.0,South,9.2,-,N/A,,Overcast,190,2013-09-29 00:52:00
8:52 PM,75.9,57.9,54,29.88,10.0,SSW,19.6,29.9,N/A,,Overcast,200,2013-09-29 01:52:00
9:52 PM,73.9,60.1,62,29.87,10.0,SSW,12.7,-,N/A,,Overcast,210,2013-09-29 02:52:00
10:52 PM,68.0,64.0,87,29.89,8.0,SW,8.1,-,0.01,,Overcast,230,2013-09-29 03:52:00
11:40 PM,66.2,64.4,94,29.92,2.5,SSW,13.8,19.6,0.04,Rain,Rain,210,2013-09-29 04:40:00
11:52 PM,66.9,64.9,93,29.90,2.5,SSW,19.6,28.8,0.08,Rain,Rain,210,2013-09-29 04:52:00
11:57 PM,64.4,64.4,100,29.93,3.0,WNW,9.2,28.8,0.01,Rain,Rain,290,2013-09-29 04:57:00